Wind_Speed
11 8 7 2 11 3 12 10 6 0 10 9 11 10 18 21 22 27 26 27 26 27 25 19 4 18 32 30 31 29 28 35 37 36 35 34 39 44 44 45 45 45 47 47
8 11 7 11 14 3 1 4 11 12 12 7 19 14 9 16 22 22 23 25 22 22 24 25 23 16 6 31 32 31 32 33 36 37 37 40 39 40 42 45 47 46 47 49
3 9 14 5 10 13 11 16 11 10 11 1 2 17 12 16 22 20 22 22 20 18 20 22 20 17 14 5 13 34 35 34 35 40 41 41 41 40 43 45 45 49 49 48
4 6 3 4 6 4 2 10 5 12 10 9 15 17 23 22 20 18 14 12 12 12 15 20 22 21 16 12 10 5 33 37 34 36 40 43 42 45 46 46 46 46 49 50
2 3 6 14 4 3 2 7 11 12 9 13 12 19 20 23 23 20 22 18 22 17 15 16 19 20 18 12 9 5 3 11 21 32 39 39 42 44 45 48 50 51 49 50
2 4 5 5 2 10 1 5 7 12 11 11 18 7 6 25 34 29 30 23 18 13 11 16 17 17 18 18 15 15 14 14 13 17 28 42 39 39 43 45 47 47 47 48
7 3 6 5 7 10 4 4 10 18 17 18 10 9 16 22 27 21 20 18 16 15 15 15 17 16 17 18 19 18 17 19 19 15 13 28 36 40 41 44 43 43 46 48
4 3 6 13 6 4 6 18 20 24 23 22 21 18 19 17 20 18 18 18 18 18 18 16 16 17 18 18 18 18 19 20 22 18 15 11 24 28 34 38 41 42 45 46
6 5 9 22 18 24 23 24 22 25 21 17 19 16 19 17 16 16 17 18 18 16 15 17 16 16 17 17 18 17 17 19 22 23 18 17 12 13 16 24 34 38 39 43
3 10 12 22 24 20 22 24 23 18 17 15 16 14 15 13 15 15 16 17 18 16 16 17 18 17 17 16 15 15 13 14 16 21 25 21 15 11 9 8 11 20 24 26
4 11 19 17 14 14 22 18 18 16 12 9 10 12 10 11 13 14 15 16 16 16 15 15 16 16 16 15 13 13 12 10 12 15 16 18 18 18 20 18 11 9 8 9
3 9 14 12 14 13 14 14 10 5 7 7 6 8 6 5 9 12 16 15 14 14 14 14 14 14 14 14 13 11 9 8 9 9 11 14 17 17 12 13 16 13 8 6
5 8 17 16 14 12 10 9 7 8 8 7 7 3 2 4 6 7 10 11 12 12 11 11 12 12 11 11 10 7 6 6 5 8 11 13 16 21 27 29 30 31 32 32
20 7 16 14 10 10 10 10 10 8 10 8 6 5 5 6 6 8 9 9 9 8 9 9 10 11 10 9 9 8 8 8 9 11 13 16 20 25 29 32 34 35 31 30
16 14 13 9 10 11 6 5 9 10 7 8 10 10 10 11 13 14 12 12 11 11 13 13 14 15 12 11 10 11 13 14 15 17 19 22 24 27 29 30 30 30 26 25
11 13 13 14 12 9 8 9 8 8 7 7 8 11 13 15 15 16 17 16 16 20 18 17 16 15 12 12 14 16 17 17 17 21 23 24 26 27 26 25 26 24 23 21
13 15 14 12 11 10 10 9 8 7 5 6 9 11 13 12 14 16 17 17 18 20 19 19 18 15 13 13 15 18 18 19 19 21 21 22 22 22 22 21 21 20 19 14
9 8 7 9 8 8 10 10 8 7 8 7 8 8 8 11 16 16 16 15 16 17 19 18 16 14 15 14 13 15 16 17 18 20 19 20 20 19 18 17 17 16 15 13
7 7 7 11 8 8 9 10 10 11 11 11 13 15 15 14 13 13 12 12 15 17 17 15 14 14 15 13 13 13 14 15 16 17 17 17 17 15 15 14 13 12 10 9
7 7 7 6 6 6 9 9 9 12 12 12 14 15 16 14 12 11 10 14 16 15 11 10 11 12 12 10 10 10 11 11 12 13 12 12 12 12 12 11 10 10 9 9
10 10 11 12 13 13 12 12 13 16 16 13 13 13 12 10 8 9 10 12 13 11 10 9 9 10 9 8 8 9 10 10 11 11 11 11 11 11 10 10 10 8 8 7
8 10 10 10 12 14 13 13 14 14 13 11 10 9 9 9 10 11 11 12 11 9 9 10 11 10 10 10 10 9 10 10 11 10 10 9 9 8 8 7 6 5 4 3
9 10 10 11 12 14 12 11 11 10 11 10 10 10 9 9 8 8 11 12 11 10 10 11 10 9 10 10 10 10 10 10 10 9 8 7 6 5 4 5 4 1 1 2
8 8 10 11 10 10 10 9 8 7 7 7 6 5 5 6 7 8 9 9 9 9 9 9 9 9 9 8 7 8 8 8 8 7 6 6 5 4 3 3 3 2 3 5
9 9 8 7 6 6 6 7 7 7 7 6 5 4 5 6 5 7 6 7 8 8 8 9 8 8 7 7 8 7 7 7 6 6 6 5 4 4 3 2 3 4 4 4
5 6 7 7 5 3 2 3 2 2 4 6 7 8 6 6 6 7 8 8 8 8 8 8 7 7 6 6 6 6 6 6 6 6 6 6 7 7 6 6 7 7 6 6
5 3 3 1 1 3 4 5 4 1 2 3 3 5 7 7 6 5 5 5 5 5 7 9 8 8 7 6 6 7 8 8 7 7 7 7 8 7 6 6 7 8 8 9
Wind_Direction
316 312 166 176 293 266 232 216 210 82 263 227 271 280 288 305 65 49 41 37 37 41 35 53 85 222 226 230 227 221 223 233 239 239 238 236 231 231 230 232 235 236 238 241
294 277 250 221 204 237 19 289 241 262 304 173 243 213 255 64 62 55 50 49 39 26 30 32 32 31 301 233 238 234 228 228 234 242 242 239 237 235 234 234 235 237 238 239
286 345 319 300 205 193 188 203 204 189 222 226 105 78 56 54 59 51 41 40 41 31 19 23 22 17 18 23 249 240 247 240 231 233 240 243 240 238 239 237 236 239 240 241
260 314 266 246 300 188 347 33 255 90 63 67 89 73 50 44 39 35 25 31 42 31 14 358 347 353 353 3 13 281 242 247 249 240 237 236 238 240 241 241 240 238 241 240
230 228 285 305 328 41 19 51 62 81 61 23 76 50 29 22 22 17 38 52 75 56 27 7 1 356 1 1 1 2 74 222 238 245 247 238 236 242 242 238 239 242 243 243
299 238 231 234 356 338 203 88 87 80 66 55 58 52 354 33 51 52 63 67 61 51 18 11 7 2 359 358 353 347 334 324 319 266 249 246 247 247 245 243 244 243 246 248
227 244 287 274 318 342 206 128 79 70 66 64 70 60 22 47 46 44 45 44 30 16 21 12 357 8 11 9 12 11 356 336 314 312 292 236 241 249 249 246 245 241 241 241
200 220 250 327 345 51 122 69 71 63 56 53 50 48 42 45 40 21 13 1 6 359 358 3 3 9 13 8 6 2 2 0 348 314 327 269 239 241 242 244 245 242 242 241
160 205 45 38 51 63 82 79 70 69 61 60 51 43 39 34 31 13 5 354 356 0 0 6 9 5 3 1 357 357 8 14 14 355 339 328 301 259 237 232 232 234 233 236
61 57 70 54 59 65 81 64 69 65 60 56 50 43 32 13 14 6 355 355 355 360 1 1 2 1 357 352 353 352 3 11 11 11 13 357 337 318 289 271 254 229 222 217
76 94 84 65 42 50 53 56 60 68 64 56 49 38 20 3 360 358 356 6 6 8 8 8 6 360 353 349 350 348 350 6 17 23 21 24 16 7 356 335 342 328 246 215
77 338 91 82 68 47 53 42 42 60 62 39 61 52 36 3 353 348 351 359 5 7 4 6 6 5 2 356 355 351 347 11 39 45 51 62 61 59 46 58 63 65 65 112
49 32 94 86 65 54 64 62 58 54 53 52 28 35 26 8 13 6 2 2 6 13 15 11 6 5 8 13 13 4 9 32 52 72 79 83 86 90 97 90 92 96 97 98
28 109 62 62 71 64 80 67 91 61 56 37 37 41 41 36 32 39 35 31 30 35 41 41 41 41 38 36 38 48 65 83 90 91 94 100 104 106 105 102 102 97 99 98
30 66 68 81 64 50 53 68 65 59 44 28 18 33 49 60 60 64 72 72 73 71 68 64 63 59 61 67 76 86 86 89 99 106 109 112 112 110 108 108 105 106 108 110
18 37 41 46 40 42 47 48 60 60 57 47 44 49 62 73 80 83 83 83 78 70 69 68 69 69 73 84 93 97 100 104 109 113 116 117 118 118 115 114 111 106 103 102
34 25 22 30 33 68 59 45 44 50 51 73 89 93 95 99 98 94 90 87 87 83 76 74 74 75 77 86 93 99 104 108 111 112 113 115 116 114 114 113 109 105 99 100
52 44 40 43 59 62 45 42 47 61 71 81 111 127 113 109 100 97 92 90 90 88 81 75 74 82 85 85 94 102 103 105 109 111 115 116 115 116 114 110 105 103 102 100
29 29 37 69 63 66 73 74 70 81 96 104 111 102 100 100 101 100 102 96 85 79 69 70 73 77 79 83 89 93 99 104 105 103 104 108 109 107 106 105 105 101 97 96
51 47 51 83 80 75 88 86 91 98 100 107 108 106 101 95 92 90 87 82 73 71 69 65 67 66 71 76 77 87 97 103 105 106 107 105 103 101 99 99 100 99 99 95
64 77 78 81 85 87 93 103 109 106 106 105 102 95 91 88 84 84 77 72 65 60 61 62 63 67 73 78 83 91 97 102 106 107 108 108 110 109 108 107 105 99 93 86
73 81 84 90 95 96 97 103 106 108 105 100 93 88 82 71 62 58 64 66 70 77 79 73 67 63 73 77 78 82 90 97 98 100 100 101 105 110 109 105 100 98 96 91
82 89 93 95 98 101 106 105 105 102 97 88 78 67 60 62 73 74 72 68 69 71 72 69 65 69 62 60 65 77 85 85 85 85 88 93 96 93 83 87 104 141 47 35
90 86 88 91 95 100 97 91 84 80 78 78 73 55 36 49 60 62 64 68 74 66 60 62 60 57 64 71 71 68 65 66 69 66 61 53 57 67 62 42 32 21 346 351
81 79 77 76 77 76 67 56 42 34 23 27 33 61 74 74 71 72 72 61 57 58 55 47 45 64 63 57 63 71 61 57 51 47 43 36 39 28 27 13 335 336 342 341
181 174 156 155 131 113 110 160 114 32 358 17 35 44 47 57 65 62 61 55 47 42 57 56 44 34 38 44 40 43 39 34 24 17 16 359 360 10 359 351 345 338 334 324
95 105 92 126 202 207 186 176 199 243 282 345 26 42 45 52 63 53 33 32 37 33 22 22 28 30 31 20 16 6 2 10 8 3 358 348 346 354 348 336 328 323 317 312
Height
1420 1415 1424 1426 1426 1421 1420 1417 1421 1410 1413 1407 1408 1406 1396 1395 1389 1388 1390 1390 1392 1396 1397 1396 1399 1400 1396 1394 1397 1401 1404 1405 1406 1412 1417 1421 1424 1426 1430 1432 1433 1437 1440 1442
1423 1411 1406 1415 1411 1415 1417 1415 1412 1414 1413 1407 1399 1401 1399 1400 1394 1395 1396 1396 1395 1395 1397 1396 1397 1398 1397 1400 1396 1396 1399 1401 1403 1403 1407 1410 1415 1418 1422 1423 1426 1429 1429 1432
1423 1413 1410 1410 1398 1400 1404 1404 1399 1409 1403 1389 1394 1401 1403 1399 1396 1397 1397 1395 1395 1397 1398 1398 1397 1396 1398 1398 1396 1394 1394 1396 1399 1400 1399 1401 1406 1410 1411 1414 1420 1420 1423 1427
1432 1424 1422 1395 1387 1385 1388 1391 1387 1392 1393 1396 1398 1401 1400 1400 1399 1398 1398 1397 1397 1398 1399 1399 1396 1395 1395 1395 1395 1393 1394 1393 1392 1394 1395 1398 1400 1400 1403 1407 1409 1412 1414 1415
1433 1423 1409 1394 1388 1387 1391 1399 1397 1394 1397 1396 1402 1401 1404 1404 1402 1400 1398 1397 1400 1401 1401 1400 1397 1394 1392 1391 1392 1391 1389 1389 1391 1394 1390 1390 1391 1391 1394 1398 1401 1402 1405 1408
1432 1424 1422 1396 1387 1382 1383 1406 1402 1400 1401 1402 1402 1412 1413 1408 1404 1402 1401 1401 1401 1402 1400 1398 1397 1395 1392 1389 1388 1387 1387 1387 1386 1385 1384 1384 1383 1384 1386 1388 1390 1394 1397 1398
1429 1429 1411 1390 1386 1383 1395 1415 1404 1403 1404 1405 1411 1417 1416 1411 1407 1406 1406 1405 1403 1401 1400 1399 1398 1395 1392 1390 1387 1385 1384 1383 1382 1379 1377 1375 1377 1381 1381 1382 1384 1386 1387 1388
1427 1427 1423 1394 1390 1395 1404 1403 1404 1405 1407 1407 1409 1415 1418 1413 1408 1405 1405 1402 1402 1401 1399 1398 1397 1396 1394 1392 1389 1387 1383 1380 1377 1375 1372 1369 1369 1372 1375 1375 1376 1376 1378 1379
1411 1412 1408 1406 1404 1404 1404 1406 1409 1409 1412 1413 1414 1415 1414 1412 1410 1408 1408 1405 1403 1402 1400 1399 1399 1397 1394 1392 1389 1387 1383 1379 1375 1374 1370 1368 1367 1366 1366 1368 1367 1369 1369 1370
1402 1410 1411 1411 1412 1415 1412 1411 1411 1413 1415 1417 1417 1416 1414 1412 1412 1411 1410 1408 1405 1403 1401 1400 1398 1396 1394 1392 1389 1387 1383 1379 1375 1373 1370 1367 1368 1365 1365 1364 1363 1361 1360 1359
1409 1414 1413 1418 1419 1416 1414 1414 1417 1419 1418 1419 1419 1418 1417 1416 1415 1414 1412 1410 1407 1404 1402 1400 1398 1396 1394 1392 1389 1386 1383 1379 1376 1373 1371 1369 1365 1366 1367 1368 1362 1365 1361 1359
1414 1419 1414 1420 1420 1421 1419 1420 1420 1420 1418 1419 1420 1419 1419 1417 1416 1414 1411 1409 1406 1404 1402 1400 1398 1396 1393 1391 1389 1387 1384 1381 1378 1376 1374 1372 1370 1365 1364 1372 1366 1369 1368 1366
1424 1420 1419 1421 1424 1425 1425 1425 1423 1422 1421 1422 1422 1422 1420 1417 1415 1413 1411 1409 1407 1406 1403 1401 1399 1397 1394 1392 1390 1388 1385 1382 1381 1380 1378 1376 1374 1375 1373 1374 1375 1371 1378 1381
1423 1423 1424 1425 1427 1428 1426 1427 1426 1426 1424 1424 1423 1421 1419 1416 1415 1413 1412 1412 1410 1408 1406 1404 1401 1398 1396 1393 1391 1389 1387 1385 1383 1382 1382 1381 1381 1381 1381 1382 1381 1379 1381 1376
1429 1428 1428 1428 1428 1428 1427 1427 1426 1425 1425 1424 1423 1420 1417 1415 1415 1415 1414 1414 1413 1410 1407 1405 1403 1400 1397 1395 1393 1392 1392 1389 1387 1385 1385 1386 1387 1387 1389 1390 1390 1387 1391 1388
1431 1429 1430 1429 1428 1427 1426 1426 1425 1425 1425 1424 1422 1420 1418 1417 1417 1416 1415 1415 1413 1412 1411 1409 1406 1404 1402 1400 1397 1396 1395 1395 1394 1391 1392 1391 1392 1392 1394 1397 1396 1397 1397 1398
1431 1431 1431 1429 1429 1427 1426 1425 1424 1424 1423 1422 1422 1422 1422 1421 1420 1419 1418 1417 1416 1416 1415 1413 1411 1409 1407 1406 1403 1401 1401 1401 1400 1398 1398 1397 1398 1399 1400 1400 1399 1401 1400 1400
1434 1433 1432 1430 1429 1427 1426 1425 1425 1424 1423 1423 1424 1424 1424 1423 1422 1422 1422 1422 1421 1420 1418 1417 1416 1413 1411 1410 1408 1407 1407 1406 1406 1404 1404 1402 1403 1404 1404 1404 1405 1406 1406 1405
1435 1433 1432 1431 1429 1428 1427 1426 1426 1426 1426 1426 1426 1426 1426 1426 1426 1426 1426 1425 1424 1422 1423 1422 1420 1418 1415 1415 1413 1412 1410 1410 1411 1410 1410 1409 1409 1409 1409 1409 1409 1409 1409 1410
1435 1434 1433 1432 1431 1430 1430 1430 1430 1430 1430 1431 1431 1430 1429 1430 1430 1430 1429 1426 1426 1426 1426 1425 1422 1421 1419 1419 1417 1416 1414 1413 1413 1413 1413 1412 1412 1412 1412 1412 1412 1412 1412 1412
1438 1437 1436 1435 1434 1433 1433 1433 1433 1433 1434 1435 1435 1434 1434 1434 1434 1432 1430 1429 1428 1428 1427 1425 1424 1422 1422 1420 1419 1418 1416 1416 1416 1416 1416 1415 1415 1415 1416 1416 1415 1415 1414 1414
1441 1440 1440 1439 1438 1438 1438 1438 1438 1439 1438 1438 1438 1438 1436 1436 1434 1433 1432 1432 1431 1430 1429 1426 1425 1425 1424 1422 1421 1421 1420 1419 1418 1419 1418 1418 1418 1418 1418 1418 1416 1416 1416 1416
1444 1444 1443 1443 1442 1442 1443 1443 1443 1443 1442 1441 1440 1439 1438 1437 1437 1436 1434 1433 1433 1432 1430 1429 1428 1427 1425 1424 1425 1425 1423 1421 1420 1419 1420 1420 1419 1419 1419 1418 1417 1417 1416 1416
1448 1448 1447 1447 1447 1447 1447 1446 1446 1445 1444 1443 1442 1441 1440 1439 1438 1436 1436 1435 1434 1434 1432 1431 1429 1429 1428 1428 1427 1427 1426 1424 1422 1421 1421 1420 1421 1421 1419 1418 1417 1417 1416 1415
1451 1451 1451 1450 1450 1450 1449 1448 1447 1446 1445 1444 1443 1442 1441 1440 1439 1438 1438 1437 1436 1435 1433 1432 1432 1431 1430 1430 1429 1428 1428 1426 1424 1423 1421 1422 1422 1421 1419 1418 1417 1417 1416 1416
1452 1452 1452 1452 1452 1452 1451 1450 1449 1448 1446 1445 1444 1443 1441 1440 1440 1439 1439 1438 1437 1436 1435 1435 1434 1433 1432 1431 1430 1429 1427 1426 1424 1423 1423 1422 1421 1420 1419 1418 1417 1416 1415 1415
1452 1452 1452 1452 1451 1451 1450 1449 1448 1448 1447 1446 1445 1444 1443 1442 1441 1441 1440 1439 1438 1437 1436 1435 1434 1433 1433 1431 1430 1428 1427 1425 1424 1424 1423 1422 1420 1419 1418 1417 1416 1415 1414 1413